GW2765 Weather Reports


Display with metric or nautical units.
time (UTC)temp
F
wind
direction
speed
MPH
gust
MPH
rain 1hr
in
rain 24hr
in
rain mn
in
humidity
%
barometer
mb
20260906052901 92 59 1.0 3.0 0.00 0.00 0.00 32 1010.5
20260906052402 92 76 1.0 3.0 0.00 0.00 0.00 32 1010.6
20260906051856 92 70 1.0 2.0 0.00 0.00 0.00 32 1010.6
20260906051349 92 113 0.0 2.0 0.00 0.00 0.00 32 1010.5
20260906050843 93 86 0.0 2.0 0.00 0.00 0.00 32 1010.5
20260906050338 93 103 0.0 2.0 0.00 0.00 0.00 32 1010.5
20260906045833 93 132 0.0 2.0 0.00 0.00 0.00 32 1010.6
20260906045332 93 87 1.0 3.0 0.00 0.00 0.00 32 1010.6
20260906044833 93 169 1.0 3.0 0.00 0.00 0.00 32 1010.6
20260906044604 93 185 1.0 3.0 0.00 0.00 0.00 32 1010.7
20260906043833 93 168 0.0 1.0 0.00 0.00 0.00 31 1010.5
20260906043332 93 117 0.0 1.0 0.00 0.00 0.00 31 1010.6
20260906042832 93 70 0.0 2.0 0.00 0.00 0.00 31 1010.4
20260906042336 94 70 0.0 2.0 0.00 0.00 0.00 31 1010.5
20260906042058 94 80 0.0 2.0 0.00 0.00 0.00 31 1010.4
20260906041336 94 83 1.0 4.0 0.00 0.00 0.00 31 1010.5
20260906040834 94 65 1.0 4.0 0.00 0.00 0.00 30 1010.3
20260906040333 94 63 1.0 7.0 0.00 0.00 0.00 31 1010.3
20260906035830 94 44 2.0 7.0 0.00 0.00 0.00 30 1010.2
20260906035329 94 81 2.0 7.0 0.00 0.00 0.00 31 1010.2
20260906034829 94 51 1.0 4.0 0.00 0.00 0.00 31 1010.1
20260906034330 95 64 1.0 4.0 0.00 0.00 0.00 31 1009.9
20260906033829 95 65 1.0 4.0 0.00 0.00 0.00 31 1009.8
20260906033329 95 2 1.0 4.0 0.00 0.00 0.00 31 1009.9
20260906032829 96 177 2.0 5.0 0.00 0.00 0.00 33 1009.8
20260906032329 96 139 3.0 7.0 0.00 0.00 0.00 33 1009.6
20260906031829 96 242 2.0 7.0 0.00 0.00 0.00 33 1009.6
20260906031330 96 260 3.0 7.0 0.00 0.00 0.00 33 1009.7
20260906030828 96 210 3.0 7.0 0.00 0.00 0.00 32 1009.7
20260906030331 96 240 4.0 7.0 0.00 0.00 0.00 32 1009.6
20260906025832 96 223 5.0 9.0 0.00 0.00 0.00 32 1009.4
20260906025329 96 240 7.0 11.0 0.00 0.00 0.00 32 1009.4
20260906024829 97 225 7.0 11.0 0.00 0.00 0.00 31 1009.3
20260906024330 97 269 6.0 10.0 0.00 0.00 0.00 31 1009.4
20260906023829 97 268 4.0 9.0 0.00 0.00 0.00 31 1009.4
20260906023331 97 251 5.0 11.0 0.00 0.00 0.00 30 1009.3
20260906022830 97 302 6.0 11.0 0.00 0.00 0.00 30 1009.4
20260906022554 97 254 4.0 10.0 0.00 0.00 0.00 30 1009.5
20260906021829 97 256 4.0 8.0 0.00 0.00 0.00 30 1009.5
20260906021556 97 317 3.0 7.0 0.00 0.00 0.00 30 1009.5
20260906020829 97 309 2.0 7.0 0.00 0.00 0.00 30 1009.5
20260906020330 97 282 1.0 6.0 0.00 0.00 0.00 30 1009.5
20260906015829 97 49 1.0 3.0 0.00 0.00 0.00 28 1009.4
20260906015329 97 169 0.0 3.0 0.00 0.00 0.00 24 1009.4
20260906014829 97 80 1.0 4.0 0.00 0.00 0.00 23 1009.4
20260906014329 98 77 1.0 4.0 0.00 0.00 0.00 23 1009.4
20260906013829 98 151 1.0 3.0 0.00 0.00 0.00 22 1009.4
20260906013331 98 181 1.0 5.0 0.00 0.00 0.00 22 1009.5
20260906012833 99 56 0.0 5.0 0.00 0.00 0.00 22 1009.5
20260906012330 99 62 1.0 5.0 0.00 0.00 0.00 22 1009.4
20260906011829 99 54 1.0 5.0 0.00 0.00 0.00 22 1009.5
20260906011552 99 53 2.0 5.0 0.00 0.00 0.00 21 1009.5
20260906010829 100 172 2.0 6.0 0.00 0.00 0.00 21 1009.6
20260906010330 100 66 2.0 6.0 0.00 0.00 0.00 21 1009.5
20260906010054 100 89 2.0 5.0 0.00 0.00 0.00 20 1009.5
20260906005330 100 108 2.0 4.0 0.00 0.00 0.00 20 1009.5
20260906004828 101 31 1.0 4.0 0.00 0.00 0.00 19 1009.4
20260906004329 101 99 1.0 5.0 0.00 0.00 0.00 20 1009.5
20260906003826 100 26 1.0 5.0 0.00 0.00 0.00 20 1009.4
20260906003551 100 68 2.0 5.0 0.00 0.00 0.00 20 1009.5
20260906003047 100 84 2.0 6.0 0.00 0.00 0.00 19 1009.3
20260906002320 100 91 2.0 7.0 0.00 0.00 0.00 20 1009.4
20260906001818 101 54 2.0 7.0 0.00 0.00 0.00 19 1009.3
20260906001319 101 50 2.0 7.0 0.00 0.00 0.00 19 1009.4
20260906000817 101 74 2.0 6.0 0.00 0.00 0.00 19 1009.5
20260906000318 101 63 3.0 6.0 0.00 0.00 0.00 19 1009.4
20260906000041 101 94 2.0 6.0 0.00 0.00 0.00 19 1009.4
20260905235316 101 42 2.0 5.0 0.00 0.00 0.00 19 1009.5
20260905234816 101 96 2.0 6.0 0.00 0.00 0.00 17 1009.5
20260905234314 101 89 2.0 6.0 0.00 0.00 0.00 18 1009.5
20260905234040 101 44 2.0 6.0 0.00 0.00 0.00 18 1009.5
20260905233314 101 92 2.0 6.0 0.00 0.00 0.00 18 1009.4
20260905232814 101 70 2.0 6.0 0.00 0.00 0.00 18 1009.5
20260905232315 101 79 2.0 6.0 0.00 0.00 0.00 18 1009.6
20260905231814 100 79 2.0 6.0 0.00 0.00 0.00 19 1009.6
20260905231537 100 114 2.0 6.0 0.00 0.00 0.00 19 1009.7
20260905230812 100 101 1.0 5.0 0.00 0.00 0.00 19 1009.7
20260905230310 99 69 2.0 7.0 0.00 0.00 0.00 19 1009.7
20260905230027 99 115 2.0 7.0 0.00 0.00 0.00 18 1009.9
20260905225306 98 127 3.0 7.0 0.00 0.00 0.00 18 1009.8
20260905224803 98 85 2.0 6.0 0.00 0.00 0.00 18 1009.9
20260905224304 98 127 3.0 6.0 0.00 0.00 0.00 18 1010.0
20260905223805 98 82 3.0 6.0 0.00 0.00 0.00 18 1010.1
20260905223304 98 91 2.0 5.0 0.00 0.00 0.00 18 1010.0
20260905222805 99 85 2.0 6.0 0.00 0.00 0.00 17 1009.9
20260905222306 99 83 2.0 6.0 0.00 0.00 0.00 17 1010.1
20260905221804 99 77 3.0 10.0 0.00 0.00 0.00 17 1010.1
20260905221303 99 78 3.0 10.0 0.00 0.00 0.00 17 1010.3
20260905220803 99 92 3.0 9.0 0.00 0.00 0.00 16 1010.3
20260905220302 99 174 3.0 9.0 0.00 0.00 0.00 17 1010.3
20260905215804 99 70 3.0 7.0 0.00 0.00 0.00 17 1010.3
20260905215305 99 113 2.0 7.0 0.00 0.00 0.00 17 1010.3
20260905214803 99 37 3.0 8.0 0.00 0.00 0.00 17 1010.4
20260905214301 99 66 3.0 8.0 0.00 0.00 0.00 17 1010.5
20260905213802 99 101 3.0 7.0 0.00 0.00 0.00 16 1010.5
20260905213302 100 60 3.0 7.0 0.00 0.00 0.00 16 1010.7
20260905212759 100 109 3.0 7.0 0.00 0.00 0.00 16 1010.7
20260905212252 100 75 3.0 7.0 0.00 0.00 0.00 15 1010.7
20260905211746 100 108 3.0 7.0 0.00 0.00 0.00 15 1010.7
20260905211508 100 96 2.0 6.0 0.00 0.00 0.00 16 1010.8
20260905211009 101 63 2.0 6.0 0.00 0.00 0.00 15 1010.8
20260905210239 101 75 2.0 6.0 0.00 0.00 0.00 15 1010.9
20260905205739 101 62 1.0 6.0 0.00 0.00 0.00 16 1011.0
20260905205238 101 109 2.0 7.0 0.00 0.00 0.00 15 1011.1
20260905204739 101 84 2.0 7.0 0.00 0.00 0.00 15 1011.1
20260905204238 100 167 2.0 6.0 0.00 0.00 0.00 16 1011.3
20260905203738 100 348 2.0 8.0 0.00 0.00 0.00 15 1011.2
20260905203238 101 79 2.0 8.0 0.00 0.00 0.00 15 1011.3
20260905202738 100 218 1.0 5.0 0.00 0.00 0.00 15 1011.3
20260905202237 100 105 1.0 5.0 0.00 0.00 0.00 15 1011.4
20260905201738 101 170 2.0 9.0 0.00 0.00 0.00 14 1011.6
20260905201236 101 154 2.0 9.0 0.00 0.00 0.00 14 1011.5
20260905201006 101 96 1.0 4.0 0.00 0.00 0.00 14 1011.5
20260905200504 101 165 1.0 3.0 0.00 0.00 0.00 14 1011.6
20260905195733 100 309 1.0 2.0 0.00 0.00 0.00 14 1011.6
20260905195233 100 30 1.0 2.0 0.00 0.00 0.00 15 1011.7
20260905195003 100 354 1.0 5.0 0.00 0.00 0.00 15 1011.8
20260905194230 99 76 2.0 5.0 0.00 0.00 0.00 14 1011.9
20260905193957 99 38 1.0 5.0 0.00 0.00 0.00 14 1011.9
20260905193231 100 119 1.0 5.0 0.00 0.00 0.00 14 1012.0
20260905192730 99 157 1.0 4.0 0.00 0.00 0.00 15 1012.1
20260905192229 99 3 0.0 3.0 0.00 0.00 0.00 14 1012.2
20260905191728 99 42 1.0 6.0 0.00 0.00 0.00 13 1012.3
20260905191229 98 158 2.0 6.0 0.00 0.00 0.00 14 1012.4
20260905190728 97 217 1.0 4.0 0.00 0.00 0.00 15 1012.4
20260905190457 96 160 1.0 3.0 0.00 0.00 0.00 15 1012.4
20260905185730 95 305 1.0 3.0 0.00 0.00 0.00 15 1012.5
20260905185450 96 331 2.0 5.0 0.00 0.00 0.00 16 1012.5
20260905184729 96 359 2.0 5.0 0.00 0.00 0.00 16 1012.6
20260905184229 96 227 1.0 5.0 0.00 0.00 0.00 15 1012.5
20260905183725 96 269 1.0 5.0 0.00 0.00 0.00 15 1012.6
20260905183225 95 216 1.0 5.0 0.00 0.00 0.00 16 1012.7
20260905182725 95 171 1.0 3.0 0.00 0.00 0.00 16 1012.7
20260905182225 95 239 1.0 3.0 0.00 0.00 0.00 17 1012.8
20260905181724 95 213 2.0 4.0 0.00 0.00 0.00 17 1012.8
20260905181224 94 245 2.0 5.0 0.00 0.00 0.00 16 1012.9
20260905180225 94 292 0.0 3.0 0.00 0.00 0.00 17 1012.8
20260905175725 94 347 0.0 2.0 0.00 0.00 0.00 18 1012.9
20260905175221 94 335 0.0 3.0 0.00 0.00 0.00 19 1012.9
20260905174720 94 255 1.0 3.0 0.00 0.00 0.00 16 1012.9
20260905174449 94 152 1.0 4.0 0.00 0.00 0.00 17 1012.9
20260905173721 93 155 1.0 4.0 0.00 0.00 0.00 17 1012.7
20260905173222 93 207 0.0 3.0 0.00 0.00 0.00 19 1012.7
20260905172721 93 218 0.0 2.0 0.00 0.00 0.00 20 1012.8
20260905172444 92 227 0.0 2.0 0.00 0.00 0.00 18 1012.7
20260905171720 92 79 0.0 1.0 0.00 0.00 0.00 19 1012.7
20260905171221 92 219 0.0 2.0 0.00 0.00 0.00 20 1012.7
20260905170716 91 176 0.0 2.0 0.00 0.00 0.00 19 1012.7
20260905170215 91 160 0.0 2.0 0.00 0.00 0.00 21 1012.6
20260905165715 90 189 0.0 1.0 0.00 0.00 0.00 21 1012.6
20260905164714 89 111 0.0 1.0 0.00 0.00 0.00 21 1012.6
20260905164213 89 108 0.0 2.0 0.00 0.00 0.00 23 1012.7
20260905163710 89 116 0.0 2.0 0.00 0.00 0.00 24 1012.7
20260905163208 89 165 1.0 3.0 0.00 0.00 0.00 23 1012.6
20260905162710 89 133 1.0 3.0 0.00 0.00 0.00 24 1012.7
20260905162437 90 108 1.0 2.0 0.00 0.00 0.00 23 1012.6
20260905161706 90 79 0.0 2.0 0.00 0.00 0.00 23 1012.6
20260905161205 89 228 0.0 1.0 0.00 0.00 0.00 24 1012.6
20260905160933 89 145 0.0 2.0 0.00 0.00 0.00 24 1012.6
20260905160204 88 113 0.0 2.0 0.00 0.00 0.00 26 1012.6
20260905155423 87 152 0.0 2.0 0.00 0.00 0.00 27 1012.5
20260905154703 86 64 0.0 2.0 0.00 0.00 0.00 28 1012.5
20260905153700 84 153 0.0 2.0 0.00 0.00 0.00 31 1012.5
20260905153202 82 124 0.0 2.0 0.00 0.00 0.00 32 1012.5
20260905152703 80 147 0.0 2.0 0.00 0.00 0.00 34 1012.5
20260905152201 80 114 1.0 3.0 0.00 0.00 0.00 34 1012.5
20260905151701 79 168 1.0 3.0 0.00 0.00 0.00 37 1012.5
20260905151202 79 210 0.0 2.0 0.00 0.00 0.00 37 1012.4
20260905150701 78 224 0.0 2.0 0.00 0.00 0.00 39 1012.4
20260905150429 78 193 1.0 2.0 0.00 0.00 0.00 40 1012.5
20260905145701 78 184 0.0 2.0 0.00 0.00 0.00 40 1012.4
20260905145202 78 207 1.0 3.0 0.00 0.00 0.00 39 1012.4
20260905144701 78 193 0.0 3.0 0.00 0.00 0.00 38 1012.3
20260905144429 78 150 0.0 2.0 0.00 0.00 0.00 37 1012.2
20260905143927 77 139 0.0 2.0 0.00 0.00 0.00 37 1012.3
20260905143203 76 139 0.0 2.0 0.00 0.00 0.00 41 1012.2
20260905142704 76 155 0.0 2.0 0.00 0.00 0.00 42 1012.2
20260905142425 75 155 0.0 2.0 0.00 0.00 0.00 42 1012.1
20260905141702 75 165 0.0 1.0 0.00 0.00 0.00 43 1012.0
20260905141159 75 150 0.0 0.0 0.00 0.00 0.00 41 1011.8
20260905140653 75 150 0.0 0.0 0.00 0.00 0.00 42 1011.8
20260905140147 75 150 0.0 2.0 0.00 0.00 0.00 44 1011.8
20260905135641 74 177 0.0 2.0 0.00 0.00 0.00 43 1011.8
20260905135134 73 183 0.0 1.0 0.00 0.00 0.00 43 1011.7
20260905134634 72 177 0.0 1.0 0.00 0.00 0.00 44 1011.7
20260905134132 72 144 0.0 1.0 0.00 0.00 0.00 43 1011.5
20260905133632 71 40 0.0 1.0 0.00 0.00 0.00 44 1011.5
20260905133133 71 39 0.0 0.0 0.00 0.00 0.00 45 1011.4
20260905132634 71 39 0.0 1.0 0.00 0.00 0.00 45 1011.5
20260905132132 71 39 0.0 1.0 0.00 0.00 0.00 45 1011.4
20260905131635 71 159 0.0 0.0 0.00 0.00 0.00 43 1011.3
20260905131133 72 159 0.0 0.0 0.00 0.00 0.00 44 1011.2
20260905130631 72 159 0.0 0.0 0.00 0.00 0.00 43 1011.3
20260905130132 72 165 0.0 0.0 0.00 0.00 0.00 42 1011.2
20260905125630 72 165 0.0 0.0 0.00 0.00 0.00 41 1011.2
20260905125131 73 165 0.0 0.0 0.00 0.00 0.00 41 1011.1
20260905124632 73 165 0.0 1.0 0.00 0.00 0.00 41 1011.1
20260905124130 73 165 0.0 1.0 0.00 0.00 0.00 41 1011.0
20260905123630 73 171 0.0 1.0 0.00 0.00 0.00 41 1011.1
20260905123131 73 179 0.0 0.0 0.00 0.00 0.00 41 1011.0
20260905122854 73 179 0.0 0.0 0.00 0.00 0.00 42 1010.9
20260905122129 73 179 0.0 0.0 0.00 0.00 0.00 41 1010.9
20260905121630 73 176 0.0 0.0 0.00 0.00 0.00 42 1010.9
20260905121128 72 176 0.0 0.0 0.00 0.00 0.00 43 1010.9
20260905120629 72 173 0.0 1.0 0.00 0.00 0.00 44 1010.9
20260905120359 72 173 0.0 1.0 0.00 0.00 0.00 43 1010.9
20260905115630 72 177 0.0 0.0 0.00 0.00 0.00 44 1010.8
20260905115132 73 177 0.0 0.0 0.00 0.00 0.00 43 1010.7
20260905114629 73 177 0.0 1.0 0.00 0.00 0.00 42 1010.7
20260905114128 73 177 0.0 1.0 0.00 0.00 0.00 42 1010.7
20260905113631 73 173 0.0 1.0 0.00 0.00 0.00 42 1010.8
20260905113130 73 177 0.0 1.0 0.00 0.00 0.00 42 1010.7
20260905112629 73 177 0.0 3.0 0.00 0.00 0.00 42 1010.6
20260905112129 73 177 0.0 3.0 0.00 0.00 0.00 42 1010.9
20260905111850 73 157 0.0 2.0 0.00 0.00 0.00 42 1010.8
20260905111129 73 158 0.0 2.0 0.00 0.00 0.00 42 1010.7
20260905110629 74 358 0.0 2.0 0.00 0.00 0.00 42 1010.8
20260905105619 74 220 0.0 0.0 0.00 0.00 0.00 41 1010.7
20260905105113 74 220 0.0 0.0 0.00 0.00 0.00 41 1010.7
20260905104608 74 220 0.0 0.0 0.00 0.00 0.00 41 1010.8
20260905104109 74 220 0.0 0.0 0.00 0.00 0.00 41 1010.9
20260905103607 75 220 0.0 0.0 0.00 0.00 0.00 40 1010.7
20260905103337 74 220 1.0 3.0 0.00 0.00 0.00 40 1010.7
20260905102602 75 220 1.0 3.0 0.00 0.00 0.00 41 1010.7
20260905102330 75 183 0.0 3.0 0.00 0.00 0.00 41 1010.7
20260905101602 75 147 0.0 1.0 0.00 0.00 0.00 40 1010.7
20260905101103 75 146 0.0 1.0 0.00 0.00 0.00 40 1010.6
20260905100602 76 117 0.0 1.0 0.00 0.00 0.00 39 1010.6
20260905095828 77 176 0.0 2.0 0.00 0.00 0.00 37 1010.7
20260905095103 77 138 0.0 2.0 0.00 0.00 0.00 37 1010.6
20260905094835 77 228 0.0 2.0 0.00 0.00 0.00 36 1010.7
20260905094100 77 196 0.0 2.0 0.00 0.00 0.00 36 1010.6
20260905093101 77 217 1.0 2.0 0.00 0.00 0.00 36 1010.7
20260905092601 77 194 0.0 2.0 0.00 0.00 0.00 36 1010.7
20260905092100 77 245 0.0 2.0 0.00 0.00 0.00 38 1010.7
20260905091056 77 108 0.0 2.0 0.00 0.00 0.00 39 1010.8
20260905090550 77 173 0.0 2.0 0.00 0.00 0.00 38 1010.7
20260905090044 77 109 0.0 2.0 0.00 0.00 0.00 38 1010.8
20260905085539 76 153 0.0 2.0 0.00 0.00 0.00 39 1010.9
20260905085039 76 202 0.0 1.0 0.00 0.00 0.00 39 1010.9
20260905084538 76 143 0.0 1.0 0.00 0.00 0.00 40 1010.8
20260905084038 76 212 0.0 1.0 0.00 0.00 0.00 40 1010.9
20260905083537 76 212 0.0 1.0 0.00 0.00 0.00 39 1010.9
20260905083035 77 213 0.0 1.0 0.00 0.00 0.00 40 1010.8
20260905082534 77 238 0.0 0.0 0.00 0.00 0.00 39 1010.9
20260905082034 77 179 0.0 0.0 0.00 0.00 0.00 39 1010.8
20260905081534 77 179 0.0 0.0 0.00 0.00 0.00 42 1010.9
20260905081034 77 179 0.0 1.0 0.00 0.00 0.00 38 1010.9
20260905080533 77 172 0.0 1.0 0.00 0.00 0.00 39 1010.8
20260905080300 78 164 0.0 1.0 0.00 0.00 0.00 39 1010.8
20260905075533 78 164 0.0 1.0 0.00 0.00 0.00 38 1010.8
20260905075030 78 157 0.0 0.0 0.00 0.00 0.00 38 1010.8
20260905074531 78 172 0.0 2.0 0.00 0.00 0.00 37 1010.7
20260905074030 78 172 0.0 2.0 0.00 0.00 0.00 37 1010.9
20260905073530 79 193 0.0 2.0 0.00 0.00 0.00 37 1010.8
20260905073030 78 129 0.0 1.0 0.00 0.00 0.00 37 1010.8
20260905072529 79 129 0.0 1.0 0.00 0.00 0.00 36 1010.7
20260905072026 79 96 0.0 1.0 0.00 0.00 0.00 35 1010.7
20260905071520 79 237 0.0 0.0 0.00 0.00 0.00 35 1010.6
20260905071015 79 237 0.0 1.0 0.00 0.00 0.00 35 1010.6
20260905070507 80 237 0.0 1.0 0.00 0.00 0.00 35 1010.6
20260905070241 80 237 0.0 1.0 0.00 0.00 0.00 35 1010.7
20260905065508 80 236 0.0 1.0 0.00 0.00 0.00 37 1010.7
20260905065147 80 236 0.0 2.0 0.00 0.00 0.00 34 1010.7
20260905065123 80 237 0.0 2.0 0.00 0.00 0.00 34 1010.5
20260905064238 80 163 0.0 1.0 0.00 0.00 0.00 35 1010.4
20260905063733 81 163 0.0 1.0 0.00 0.00 0.00 34 1010.5
20260905063004 81 116 0.0 1.0 0.00 0.00 0.00 34 1010.4
20260905062501 81 159 0.0 1.0 0.00 0.00 0.00 34 1010.3
20260905062003 82 160 0.0 1.0 0.00 0.00 0.00 34 1010.3
20260905061503 82 105 0.0 1.0 0.00 0.00 0.00 32 1010.3
20260905061002 82 106 0.0 1.0 0.00 0.00 0.00 32 1010.2
20260905060503 82 115 0.0 1.0 0.00 0.00 0.00 30 1010.3
20260905060232 82 132 0.0 1.0 0.00 0.00 0.00 31 1010.3
20260905055502 82 133 0.0 1.0 0.00 0.00 0.00 30 1010.2
20260905055002 82 174 0.0 0.0 0.00 0.00 0.00 30 1010.2
20260905054501 82 174 0.0 1.0 0.00 0.00 0.00 30 1010.0
20260905054001 82 175 0.0 1.0 0.00 0.00 0.00 30 1010.1